Date,TemperatureHighF,TemperatureAvgF,TemperatureLowF,DewpointHighF,DewpointAvgF,DewpointLowF,HumidityHigh,HumidityAvg,HumidityLow,PressureMaxIn,PressureMinIn,WindSpeedMaxMPH,WindSpeedAvgMPH,GustSpeedMaxMPH,PrecipitationSumIn
2013-1-1,39.4,29.5,25.5,37.8,28.3,25.0,98,95,78,30.34,30.16,0,-999,0,0.00
2013-1-2,51.4,33.3,24.1,31.1,21.8,15.1,98,68,29,30.19,29.99,0,-999,0,0.00
2013-1-3,50.4,34.3,23.4,33.3,21.9,14.2,95,66,29,30.04,29.90,0,-999,0,0.09
2013-1-4,51.8,39.4,35.1,45.1,37.0,32.4,98,91,70,30.19,29.99,0,-999,0,0.04
2013-1-5,43.9,39.3,35.4,39.4,33.3,26.6,98,80,53,30.07,29.93,0,-999,0,0.04
2013-1-6,46.8,39.1,34.3,43.2,37.0,32.7,98,92,74,30.04,29.81,0,-999,0,0.33
2013-1-7,50.2,44.9,38.5,47.5,41.5,37.0,98,88,71,30.01,29.63,0,-999,0,0.50
2013-1-8,53.1,45.9,40.1,49.5,42.3,36.7,98,88,69,30.01,29.54,13,-755,13,0.17
2013-1-9,48.7,38.6,33.1,47.7,37.6,31.6,98,96,89,29.78,29.48,12,0,12,1.24
2013-1-10,37.0,32.7,28.4,36.5,32.2,27.9,98,98,98,29.93,29.75,3,0,3,0.09
2013-1-11,31.1,28.0,25.3,30.6,27.5,24.6,98,98,98,30.16,29.93,2,0,2,0.09
2013-1-12,37.4,26.1,20.8,33.1,24.4,18.9,98,94,74,30.28,30.13,2,0,2,0.00
2013-1-13,35.1,24.7,16.9,30.2,22.1,14.7,95,90,77,30.34,30.25,2,0,2,0.00
2013-1-14,33.8,30.9,28.2,33.3,30.2,27.0,98,98,95,30.40,30.28,1,0,1,0.00
2013-1-15,48.2,33.4,28.8,39.6,30.7,26.2,98,90,54,30.55,30.37,3,0,3,0.00
2013-1-16,41.9,29.6,24.4,36.3,27.5,23.9,98,92,69,30.52,30.31,2,0,2,0.00
2013-1-17,44.2,30.3,24.1,34.9,27.5,22.8,97,90,66,30.34,30.10,3,0,3,0.00
2013-1-18,34.5,28.1,22.3,33.3,26.9,20.5,98,95,86,30.19,30.07,3,0,3,0.00
2013-1-19,31.1,28.2,25.9,30.6,27.7,25.3,98,98,98,30.22,30.16,2,0,2,0.00
2013-1-20,32.7,28.0,25.5,31.6,27.3,25.0,98,97,93,30.25,30.07,2,0,2,0.00
2013-1-21,32.4,28.2,25.3,31.8,27.7,24.8,98,98,96,30.10,29.96,2,0,2,0.00
2013-1-22,38.5,28.7,20.7,35.2,27.6,19.8,98,95,85,29.99,29.72,1,0,1,0.00
2013-1-23,40.3,35.1,32.0,39.7,34.6,31.5,98,98,98,29.96,29.66,5,0,5,0.25
2013-1-24,47.5,38.6,30.7,45.5,37.6,30.2,98,96,82,30.07,29.87,5,0,4,0.12
2013-1-25,55.2,41.2,35.6,51.4,40.2,35.1,98,96,77,29.90,29.75,2,0,3,0.21
2013-1-26,45.9,38.7,33.3,45.3,38.1,32.7,98,98,95,29.87,29.69,3,0,3,0.25
2013-1-27,41.2,38.6,37.6,40.6,37.8,36.7,98,97,93,29.90,29.81,7,0,7,0.25
2013-1-28,40.5,38.2,34.3,39.9,37.7,33.8,98,98,98,29.93,29.84,5,0,5,0.66
2013-1-29,45.3,42.1,38.7,44.8,41.5,38.1,98,98,98,30.19,29.93,6,0,6,0.87
2013-1-30,48.9,45.4,42.6,48.4,44.9,42.1,98,98,98,30.22,30.13,3,0,3,0.21
2013-1-31,48.9,46.0,44.8,48.2,45.5,44.2,98,98,98,30.22,30.10,4,0,4,0.24
2013-2-1,53.4,45.0,40.6,48.9,43.3,40.1,98,94,64,30.25,30.16,4,0,4,0.00
2013-2-2,41.7,38.5,36.1,41.0,38.0,35.6,98,98,97,30.22,30.07,4,0,4,0.00
2013-2-3,47.8,40.6,35.2,47.3,40.1,34.7,98,98,98,30.13,30.01,2,0,2,0.13
2013-2-4,52.2,44.2,41.2,49.3,42.3,40.6,98,93,70,30.04,29.69,4,0,4,0.00
2013-2-5,51.4,44.2,41.5,50.0,42.8,39.2,98,95,82,29.75,29.66,7,0,7,0.33
2013-2-6,50.4,43.8,40.3,41.7,39.2,35.4,98,84,60,29.90,29.63,8,0,8,0.33
2013-2-7,55.0,40.8,29.7,43.5,34.3,27.1,98,80,40,30.01,29.60,8,0,8,0.13
2013-2-8,43.3,35.1,28.0,39.0,32.4,26.6,98,90,73,30.13,30.01,3,0,3,0.13
2013-2-9,43.5,39.9,36.3,41.7,38.0,34.5,98,96,91,30.16,30.07,0,0,0,0.04
2013-2-10,48.9,38.8,34.3,45.0,37.0,33.8,98,94,68,30.22,30.13,3,0,3,0.04
2013-2-11,47.3,41.1,36.5,44.6,37.8,34.9,98,89,65,30.19,30.13,3,0,3,0.00
2013-2-12,48.0,44.4,39.0,46.8,42.7,37.4,98,94,79,30.22,30.13,9,0,9,0.09
2013-2-13,48.2,44.1,40.5,45.7,41.6,38.3,98,91,76,30.34,30.13,8,0,8,0.09
2013-2-14,50.2,44.3,39.7,45.5,41.9,38.1,98,92,73,30.40,30.31,4,0,4,0.08
2013-2-15,59.0,43.2,36.1,48.6,38.7,34.2,98,86,49,30.40,29.99,5,0,5,0.00
2013-2-16,56.3,41.6,35.4,44.4,37.4,30.4,98,87,45,30.04,29.93,12,1,12,0.82
2013-2-17,51.8,39.8,36.0,45.1,36.1,31.8,98,88,52,30.07,29.96,3,0,3,0.82
2013-2-18,48.4,38.8,32.9,42.3,33.8,28.8,98,84,51,29.96,29.57,3,0,3,0.05
2013-2-19,54.9,38.9,30.0,40.3,30.2,25.0,98,74,37,29.84,29.54,7,0,7,0.00
2013-2-20,47.1,37.7,30.7,40.6,33.4,27.3,96,85,53,29.90,29.81,6,0,6,0.00
2013-2-21,42.6,40.2,36.5,38.3,36.5,34.3,97,87,74,29.90,29.84,11,1,11,0.08
2013-2-22,44.8,41.3,38.7,40.5,35.7,28.9,95,81,64,29.90,29.51,12,2,12,0.21
2013-2-23,50.4,41.6,38.1,36.9,32.8,29.7,85,72,49,30.22,29.72,5,1,9,0.21
2013-2-24,47.1,41.9,37.4,36.0,34.2,30.0,92,75,53,30.22,29.78,8,0,8,0.00
2013-2-25,51.8,42.2,32.2,39.7,31.8,23.9,95,68,38,30.13,29.72,11,1,11,0.16
2013-2-26,50.4,39.7,30.2,41.0,28.7,23.2,96,68,38,30.19,30.01,9,0,9,0.00
2013-2-27,51.1,42.8,34.7,46.2,36.7,32.0,95,80,51,30.13,30.04,5,0,5,0.34
2013-2-28,51.8,44.3,40.1,51.3,43.7,39.4,98,97,95,30.16,30.01,6,0,6,0.41
2013-3-1,58.8,53.3,46.0,51.1,46.5,43.0,98,78,60,30.22,30.10,10,1,10,0.04
2013-3-2,58.6,46.8,37.0,48.9,41.7,35.4,98,84,48,30.10,29.90,11,1,11,0.37
2013-3-3,54.3,38.7,28.6,44.6,30.9,24.8,98,77,36,30.13,30.01,8,0,8,0.05
2013-3-4,61.0,37.7,25.7,35.4,26.3,20.8,97,69,25,30.13,29.75,7,0,7,0.00
2013-3-5,55.0,42.1,32.9,35.1,29.6,25.2,79,63,35,29.75,29.54,11,0,11,0.00
2013-3-6,44.2,39.5,35.8,40.6,36.5,30.7,96,89,78,29.75,29.39,4,0,4,0.54
2013-3-7,50.0,41.0,33.6,47.7,39.5,32.5,98,95,84,29.93,29.75,2,0,2,0.45
2013-3-8,58.6,39.3,30.7,44.8,32.9,28.8,98,81,42,30.07,29.90,6,0,6,0.45
2013-3-9,63.9,41.1,27.9,45.3,30.4,26.1,97,71,33,30.34,30.07,6,0,6,0.00
2013-3-10,48.4,39.8,31.1,40.8,35.5,27.7,94,85,69,30.34,30.25,3,0,3,0.04
2013-3-11,54.9,44.9,37.2,44.1,39.0,34.0,97,81,50,30.28,29.99,4,0,4,0.04
2013-3-12,54.5,51.9,44.8,48.7,44.0,38.7,98,75,56,29.99,29.90,11,2,14,0.00
2013-3-13,54.0,51.5,48.2,50.2,47.1,43.3,97,85,69,30.04,29.90,9,1,9,0.29
2013-3-14,55.4,49.8,46.9,53.8,47.4,41.9,98,92,72,29.99,29.84,6,0,6,0.29
2013-3-15,65.7,53.0,47.3,48.4,44.9,38.8,96,76,45,30.04,29.96,8,1,8,0.00
2013-3-16,51.1,45.8,36.9,43.7,38.3,28.2,86,75,53,29.96,29.72,13,1,13,0.08
2013-3-17,57.0,41.6,34.5,35.8,31.4,24.3,95,70,35,30.04,29.81,11,1,11,0.13
2013-3-18,57.6,42.1,31.8,43.0,32.6,27.5,91,70,42,30.07,29.93,11,1,11,0.13
2013-3-19,59.4,40.5,30.0,39.0,30.2,21.4,98,73,27,30.07,29.42,13,1,13,0.13
2013-3-20,54.3,44.9,34.3,48.6,37.3,25.9,98,77,50,29.84,29.22,17,2,17,0.58
2013-3-21,54.3,38.9,31.6,36.0,30.7,23.4,91,74,37,30.04,29.84,10,1,10,0.04
2013-3-22,51.6,36.8,28.0,39.6,28.8,22.1,98,76,39,30.22,30.01,6,0,6,0.17
2013-3-23,57.4,42.7,27.9,33.3,25.0,19.8,90,65,28,30.22,30.13,6,0,6,0.00
2013-3-24,64.2,45.4,26.6,33.1,24.6,19.6,89,60,24,30.16,29.96,0,0,0,0.00
2013-3-25,68.5,48.0,27.5,33.6,26.4,22.1,85,54,23,29.99,29.75,0,0,0,0.00
2013-3-26,69.1,50.3,38.8,38.8,32.3,29.3,77,54,26,29.87,29.78,7,1,7,0.00
2013-3-27,60.4,47.3,39.4,46.6,38.2,33.1,92,72,44,29.84,29.75,4,0,4,0.00
2013-3-28,69.8,49.3,39.2,48.0,38.9,35.1,97,72,34,29.99,29.81,7,1,7,0.00
2013-3-29,71.8,51.0,37.6,47.8,37.9,34.3,94,66,32,30.07,29.96,7,1,7,0.00
2013-3-30,73.4,50.8,35.8,45.5,37.6,32.5,98,66,28,30.10,29.90,8,1,8,0.00
2013-3-31,77.9,53.5,37.8,46.8,38.1,33.6,97,63,24,29.93,29.72,7,1,7,0.00
2013-4-1,72.1,52.6,37.9,47.5,40.1,34.7,91,66,35,29.99,29.81,8,1,8,0.00
2013-4-2,55.9,51.4,48.0,46.8,44.2,40.3,87,77,63,30.04,29.96,6,0,6,0.00
2013-4-3,72.1,53.8,43.2,49.8,41.6,36.1,98,68,32,30.01,29.78,6,0,6,0.00
2013-4-4,56.7,50.9,46.4,54.5,47.0,40.6,95,87,73,29.78,29.45,9,0,9,0.20
2013-4-5,60.4,52.3,47.3,49.5,46.7,41.7,95,82,54,29.69,29.54,11,1,11,0.50
2013-4-6,55.8,47.4,42.4,47.3,42.3,36.1,97,83,51,29.78,29.54,13,1,13,0.50
2013-4-7,46.0,42.5,39.9,43.0,40.8,38.8,98,94,85,29.72,29.31,5,0,5,0.91
2013-4-8,59.9,46.1,40.1,49.8,42.2,37.4,98,87,54,30.10,29.72,4,0,4,0.08
2013-4-9,57.2,48.6,41.5,47.1,40.8,35.8,98,77,48,30.19,30.01,4,0,4,0.08
2013-4-10,59.2,52.6,45.9,50.2,46.1,43.5,97,89,58,30.07,29.75,0,0,0,0.54
2013-4-11,57.6,47.6,37.6,46.4,40.6,34.0,98,81,48,30.13,30.01,0,0,0,0.12
2013-4-12,49.8,42.6,35.4,45.3,37.6,34.0,98,88,59,30.01,29.48,0,0,0,0.21
2013-4-13,47.3,39.2,32.2,39.9,35.8,30.4,98,88,64,29.81,29.60,9,1,9,0.46
2013-4-14,60.6,44.6,35.4,43.2,34.9,26.2,98,73,35,29.84,29.72,8,1,8,0.08
2013-4-15,61.0,43.8,34.9,40.3,34.7,28.9,92,73,37,30.01,29.78,8,1,8,0.05
2013-4-16,62.8,44.0,30.9,43.7,32.4,27.9,98,69,32,30.22,29.99,8,1,8,0.05
2013-4-17,68.7,50.2,31.8,42.4,31.6,23.9,92,60,23,30.31,30.19,0,0,0,0.00
2013-4-18,51.6,47.3,43.0,46.0,38.5,33.1,94,72,53,30.31,30.04,5,0,5,0.16
2013-4-19,55.6,50.4,46.9,52.3,48.7,45.9,97,94,82,30.04,29.90,7,1,7,0.79
2013-4-20,58.1,49.4,45.9,46.8,44.6,39.6,97,85,55,30.10,30.01,6,1,6,0.79
2013-4-21,61.0,46.8,38.1,50.4,42.2,34.5,98,85,47,30.19,30.04,4,0,4,0.17
2013-4-22,67.3,50.9,34.5,41.9,32.1,23.4,98,64,24,30.34,30.19,0,0,0,0.00
2013-4-23,70.2,50.5,30.9,39.4,30.1,24.8,88,56,23,30.28,30.07,0,0,0,0.00
2013-4-24,75.2,54.0,32.9,46.6,32.3,26.8,94,55,21,30.19,29.90,0,0,0,0.00
2013-4-25,80.6,55.3,35.4,40.6,35.1,30.6,88,53,21,29.99,29.87,6,1,6,0.00
2013-4-26,77.0,56.5,40.3,47.8,40.3,34.3,90,59,28,30.07,29.99,6,1,6,0.00
2013-4-27,54.7,51.5,48.7,48.0,42.5,32.0,88,73,42,30.07,29.96,6,0,6,0.08
2013-4-28,63.3,51.4,45.7,53.1,41.7,31.8,97,73,37,30.04,29.81,12,1,12,0.25
2013-4-29,63.0,46.3,39.2,46.8,38.5,29.8,95,76,34,29.99,29.72,10,1,10,0.29
2013-4-30,64.2,44.9,34.5,39.7,31.9,22.5,97,65,27,30.28,29.99,6,0,6,0.29
2013-5-1,73.6,47.7,28.9,39.0,29.4,24.6,89,56,22,30.40,30.28,6,1,6,0.13
2013-5-2,73.8,52.4,36.0,42.8,34.9,31.5,89,56,26,30.40,30.19,7,1,7,0.00
2013-5-3,75.9,54.2,36.9,45.3,38.4,32.7,89,60,30,30.22,30.07,7,1,7,0.00
2013-5-4,85.1,59.3,40.3,48.4,40.2,34.5,91,57,19,30.07,29.84,7,1,7,0.00
2013-5-5,89.4,62.8,42.3,48.2,41.9,36.7,92,55,19,29.84,29.60,7,1,7,0.00
2013-5-6,96.3,65.3,44.1,48.7,42.5,38.7,87,51,16,29.72,29.54,6,1,6,0.00
2013-5-7,81.3,60.9,46.9,49.3,45.5,42.1,87,61,30,29.84,29.63,5,1,5,0.00
2013-5-8,73.8,56.5,48.0,51.3,47.7,44.2,90,74,41,29.99,29.84,5,0,5,0.00
2013-5-9,81.5,59.5,46.9,54.9,48.4,44.2,94,71,34,30.07,29.93,5,1,5,0.00
2013-5-10,88.9,62.4,45.0,55.0,47.8,41.5,94,65,28,30.04,29.93,5,0,5,0.00
2013-5-11,93.0,66.5,51.6,52.5,48.5,41.7,88,58,21,29.99,29.78,5,0,5,0.00
2013-5-12,75.9,63.0,55.4,60.4,53.4,46.6,92,73,40,29.93,29.84,6,0,6,0.25
2013-5-13,66.0,56.3,45.0,60.1,50.0,36.9,95,80,47,30.01,29.72,17,1,17,0.33
2013-5-14,74.1,53.8,40.8,48.6,38.2,29.5,96,62,23,30.04,29.93,5,0,5,0.00
2013-5-15,70.0,51.7,39.0,48.0,40.7,35.1,91,70,33,29.96,29.84,7,0,7,0.04
2013-5-16,78.6,60.7,50.5,56.1,48.4,40.6,95,69,32,29.87,29.66,6,1,6,0.04
2013-5-17,61.3,55.6,51.6,53.1,49.0,45.5,92,79,62,29.87,29.78,4,0,4,0.09
2013-5-18,66.4,55.0,49.6,53.8,45.8,38.1,89,72,45,30.10,29.87,4,0,4,0.00
2013-5-19,70.5,55.2,47.3,51.1,46.8,42.6,95,75,44,30.22,30.07,4,0,4,0.04
2013-5-20,79.5,56.9,43.3,51.4,44.0,36.9,95,68,27,30.19,29.72,5,1,5,0.04
2013-5-21,68.9,57.4,45.9,51.6,43.5,37.4,90,76,36,29.72,29.60,0,0,0,0.29
2013-5-22,54.7,48.4,42.1,47.8,42.8,39.9,94,86,65,29.78,29.66,0,0,0,0.21
2013-5-23,59.5,51.3,43.2,50.9,45.4,41.0,97,88,62,29.87,29.75,0,0,0,0.28
2013-5-24,75.9,60.2,44.6,51.3,44.2,36.5,98,75,30,29.87,29.78,0,0,0,0.00
2013-5-25,70.7,55.7,48.0,49.1,43.5,36.3,94,67,34,29.90,29.78,5,0,5,0.00
2013-5-26,69.8,55.2,46.4,53.4,48.0,41.9,93,78,48,29.84,29.75,6,0,6,0.05
2013-5-27,60.1,54.2,47.5,55.9,51.7,46.0,97,91,82,29.81,29.54,2,0,2,0.33
2013-5-28,68.0,55.5,50.7,55.6,49.6,41.9,98,82,47,29.72,29.60,4,0,5,0.33
2013-5-29,67.1,53.5,48.7,55.6,47.9,40.5,96,82,48,29.81,29.48,9,0,9,0.04
2013-5-30,72.0,55.3,47.1,48.0,41.8,35.4,93,63,34,30.07,29.78,8,1,8,0.00
2013-5-31,76.1,56.7,47.1,50.0,43.8,37.6,92,66,31,30.16,30.07,3,0,3,0.00
2013-6-1,84.9,60.1,45.5,51.1,43.8,35.1,92,61,21,30.07,29.87,4,0,5,0.00
2013-6-2,79.7,59.8,49.6,52.7,46.2,39.9,89,64,31,29.96,29.84,3,0,3,0.00
2013-6-3,86.4,60.9,46.0,52.0,46.2,42.8,92,64,26,29.96,29.87,6,0,6,0.00
2013-6-4,93.0,64.2,46.0,56.7,48.2,43.3,92,63,24,29.96,29.84,4,1,5,0.00
2013-6-5,89.2,64.2,47.8,56.3,48.6,43.7,90,62,29,29.96,29.84,4,1,4,0.00
2013-6-6,92.8,64.5,47.8,57.2,48.1,36.0,93,62,25,29.90,29.81,5,0,5,0.00
2013-6-7,72.0,59.3,49.5,52.9,44.4,35.2,89,61,33,29.99,29.84,4,0,4,0.00
2013-6-8,81.9,60.3,50.2,52.5,44.8,41.5,77,59,31,30.01,29.93,5,0,5,0.00
2013-6-9,79.2,59.0,47.7,48.6,42.8,37.6,86,58,31,29.96,29.84,5,1,5,0.00
2013-6-10,84.6,58.6,43.5,50.4,41.9,34.5,88,58,22,29.90,29.69,4,0,4,0.00
2013-6-11,76.5,58.3,49.3,53.8,41.9,35.1,74,56,28,29.93,29.78,7,1,7,0.00
2013-6-12,83.3,57.8,47.7,49.8,42.8,36.1,80,60,25,29.99,29.93,8,0,8,0.00
2013-6-13,70.5,57.0,49.1,54.1,47.7,44.1,86,72,49,30.04,29.96,5,0,5,0.04
2013-6-14,82.4,59.6,48.9,50.0,45.3,39.0,89,63,28,30.07,29.90,6,0,6,0.04
2013-6-15,88.7,61.6,43.0,54.7,47.3,39.9,93,66,29,29.90,29.72,4,0,4,0.00
2013-6-16,86.9,62.9,49.8,56.5,50.5,42.6,93,69,29,29.93,29.81,6,0,6,0.00
2013-6-17,89.6,64.8,48.7,58.6,48.6,39.7,95,63,21,29.93,29.69,11,1,11,0.04
2013-6-18,85.8,62.6,53.2,56.3,48.3,35.4,93,64,23,29.84,29.69,7,0,7,0.04
2013-6-19,66.2,58.3,52.5,54.5,48.8,45.0,84,71,51,29.84,29.72,2,0,3,0.00
2013-6-20,59.9,54.6,52.0,56.1,51.8,48.9,97,90,82,29.93,29.78,5,0,5,1.29
2013-6-21,72.0,58.9,51.4,57.6,51.9,47.3,98,80,44,30.01,29.93,3,0,3,0.00
2013-6-22,91.6,65.0,47.7,58.3,49.7,43.5,98,66,23,29.96,29.66,5,0,5,0.00
2013-6-23,71.6,63.7,56.7,61.0,57.1,50.7,93,80,61,29.69,29.39,2,0,3,0.12
2013-6-24,73.2,61.3,56.3,59.4,56.2,49.6,97,84,51,29.54,29.36,7,0,6,0.13
2013-6-25,89.6,61.9,54.5,62.8,55.1,47.3,97,82,29,29.69,29.48,10,0,10,0.54
2013-6-26,77.4,62.2,53.6,65.8,56.5,51.3,98,83,51,29.90,29.66,4,0,4,0.54
2013-6-27,71.4,63.5,57.6,64.9,60.3,56.3,98,90,76,30.01,29.84,1,0,1,0.08
2013-6-28,99.9,73.4,61.0,69.3,60.6,51.3,98,72,23,29.99,29.84,5,0,5,0.00
2013-6-29,95.5,74.2,61.2,63.3,57.7,52.2,93,62,27,29.96,29.78,4,0,4,0.00
2013-6-30,100.2,74.9,56.8,63.7,57.7,53.4,94,62,23,29.84,29.63,5,1,5,0.00
2013-7-1,98.1,74.0,59.9,61.7,57.2,53.1,92,61,27,29.84,29.72,5,1,5,0.00
2013-7-2,90.3,70.0,57.6,61.0,52.4,43.5,89,58,21,29.93,29.84,4,1,8,0.00
2013-7-3,87.8,66.6,55.8,51.6,46.3,39.9,71,51,26,29.99,29.84,5,1,6,0.00
2013-7-4,81.9,62.6,52.0,51.3,47.6,43.0,82,61,31,29.96,29.84,5,0,5,0.00
2013-7-5,79.2,62.3,52.9,53.6,50.3,45.3,88,67,36,29.87,29.75,4,0,4,0.00
2013-7-6,89.8,66.0,52.0,58.3,51.6,45.3,95,66,27,29.81,29.66,5,0,6,0.00
2013-7-7,87.6,66.2,52.5,58.1,51.4,46.0,92,64,29,29.75,29.66,6,1,6,0.00
2013-7-8,90.1,67.4,57.2,56.8,52.1,45.7,86,62,28,29.93,29.75,4,0,4,0.00
2013-7-9,60.1,55.5,53.2,57.7,51.8,49.8,93,88,77,29.93,29.90,1,0,1,0.00
2013-7-12,63.1,57.2,51.4,47.1,46.4,45.7,83,71,56,29.93,29.87,0,0,0,0.00
2013-7-13,87.1,62.3,45.5,53.1,45.8,40.3,95,62,22,30.04,29.90,6,1,6,0.00
2013-7-14,93.2,65.3,45.9,55.0,44.4,36.1,92,55,18,29.96,29.78,6,1,6,0.00
2013-7-15,90.1,64.5,46.6,50.9,44.7,39.4,86,54,22,29.90,29.72,7,1,7,0.00
2013-7-16,94.8,66.1,49.5,58.5,50.5,44.8,90,62,22,29.75,29.60,6,0,6,0.00
2013-7-17,70.7,64.5,57.0,60.1,54.7,50.7,92,72,51,29.99,29.69,6,0,6,0.00
2013-7-18,89.2,67.2,56.3,57.2,52.7,49.1,92,65,29,30.07,29.93,3,1,4,0.00
2013-7-19,90.9,65.8,50.9,59.4,52.0,48.0,93,67,28,29.99,29.84,5,1,5,0.00
2013-7-20,90.0,64.3,51.4,58.3,53.1,48.4,92,71,30,29.93,29.75,3,0,4,0.00
2013-7-21,87.4,65.7,53.1,58.5,53.5,48.2,92,70,30,29.81,29.69,3,0,4,0.00
2013-7-22,90.5,67.1,56.3,58.6,54.1,51.1,91,68,29,29.90,29.75,4,0,4,0.00
2013-7-23,98.6,68.4,52.9,59.4,52.2,45.1,94,64,19,29.90,29.75,5,1,6,0.00
2013-7-24,98.1,68.8,51.4,58.8,48.7,40.5,93,57,18,29.90,29.78,6,1,6,0.00
2013-7-25,96.4,67.1,48.7,56.3,46.9,36.1,91,57,18,29.96,29.87,5,1,5,0.00
2013-7-26,97.2,72.5,47.8,54.9,45.1,34.2,91,54,17,29.99,29.90,0,0,0,0.00
2013-7-27,90.9,69.1,47.3,51.4,45.3,39.9,85,54,20,29.99,29.81,0,0,0,0.00
2013-7-28,82.9,61.7,48.4,53.4,47.3,44.4,90,63,30,29.84,29.78,6,1,6,0.00
2013-7-29,85.5,64.1,54.1,53.1,49.9,46.0,83,64,29,29.84,29.78,3,0,5,0.00
2013-7-30,89.6,66.5,51.8,56.1,51.1,44.8,92,64,27,29.96,29.81,6,0,6,0.00
2013-7-31,79.9,61.6,53.4,61.7,54.9,50.2,93,80,45,29.96,29.81,3,0,3,0.00
2013-8-1,65.1,60.9,56.7,58.6,54.5,50.9,94,80,64,29.90,29.84,3,0,3,0.00
2013-8-2,61.0,59.2,57.0,57.9,55.1,50.5,96,87,69,29.96,29.87,3,0,3,0.08
2013-8-3,82.9,64.9,58.5,62.2,57.5,49.6,98,80,36,29.96,29.84,3,0,3,0.08
2013-8-4,90.3,68.9,57.4,60.6,55.5,52.0,91,67,29,29.90,29.72,5,1,5,0.00
2013-8-5,97.2,69.7,53.8,61.3,54.1,48.2,95,65,22,29.84,29.72,4,1,5,0.00
2013-8-6,96.8,74.2,51.6,60.6,51.2,44.8,94,61,19,29.84,29.72,0,0,0,0.00
2013-8-7,98.4,74.4,50.5,59.0,50.2,43.5,93,60,17,29.84,29.72,0,0,0,0.00
2013-8-8,92.8,66.8,53.6,58.3,52.0,46.4,91,64,28,29.87,29.75,4,0,6,0.00
2013-8-9,93.2,68.0,52.2,56.5,52.0,48.0,92,63,26,29.81,29.63,20,0,20,0.00
2013-8-10,91.9,69.3,60.3,63.9,58.5,51.8,94,72,30,29.84,29.69,5,0,5,0.00
2013-8-11,86.7,67.0,58.5,59.4,54.2,45.7,90,67,30,29.90,29.78,5,0,5,0.00
2013-8-12,90.0,67.8,55.0,56.8,51.6,45.5,88,61,25,29.90,29.81,4,0,4,0.00
2013-8-13,95.0,68.5,54.0,57.2,51.0,43.5,91,61,20,29.93,29.72,5,0,5,0.00
2013-8-14,89.4,66.1,53.2,60.1,53.6,46.4,92,69,29,29.81,29.72,4,0,4,0.00
2013-8-15,69.8,65.2,60.8,65.5,62.5,58.1,96,91,83,29.84,29.72,2,0,2,0.08
2013-8-16,97.2,72.2,61.0,68.0,57.9,43.0,98,70,19,29.84,29.72,6,0,6,0.08
2013-8-17,87.6,68.0,57.6,59.5,53.5,46.2,91,64,29,29.90,29.84,6,0,6,0.00
2013-8-18,90.0,67.2,56.5,59.9,52.4,46.6,93,64,28,29.96,29.90,7,0,7,0.00
2013-8-19,91.4,67.2,56.7,56.3,50.5,44.2,84,59,25,29.96,29.84,6,0,6,0.00
2013-8-20,88.7,65.9,51.8,53.1,47.5,41.9,84,56,23,29.99,29.87,61,1,6,0.00
2013-8-21,92.1,63.7,46.8,56.5,48.3,43.3,94,64,22,29.93,29.72,6,0,6,0.00
2013-8-22,95.4,66.8,50.5,58.8,52.1,47.5,93,64,21,29.78,29.60,4,0,4,0.00
2013-8-23,80.4,65.3,58.6,57.9,53.7,50.2,86,68,41,29.72,29.60,6,0,6,0.00
2013-8-24,81.1,65.6,55.0,55.8,51.7,44.4,81,63,32,29.75,29.66,6,0,6,0.00
2013-8-25,77.4,60.2,50.0,56.8,51.9,47.5,94,76,40,29.78,29.66,4,0,4,0.00
2013-8-26,84.4,64.0,56.7,61.2,55.4,47.1,96,77,32,29.78,29.66,6,0,6,0.00
2013-8-27,92.8,68.0,59.0,63.1,55.7,48.7,96,70,26,29.78,29.60,5,0,5,0.00
2013-8-28,89.2,67.7,58.6,66.6,58.4,52.5,95,75,34,29.72,29.60,3,0,3,0.17
2013-8-29,79.9,65.9,62.6,71.8,62.8,60.4,97,90,64,29.84,29.66,4,0,4,0.62
2013-8-30,87.3,67.6,56.1,65.7,57.2,46.4,98,75,26,29.99,29.84,6,0,6,0.62
2013-8-31,90.5,65.5,52.9,57.7,53.1,48.9,96,71,28,29.93,29.66,5,0,5,0.00
2013-9-1,91.6,68.1,53.8,62.6,54.6,47.1,95,69,26,29.72,29.60,5,0,5,0.00
2013-9-2,92.7,68.2,55.9,61.9,54.3,47.3,93,67,25,29.75,29.66,5,0,5,0.00
2013-9-3,84.6,65.1,57.7,69.1,58.2,54.5,96,81,41,29.84,29.75,4,0,4,0.29
2013-9-4,73.4,62.0,56.8,61.9,57.6,54.3,96,86,57,29.87,29.81,4,0,4,0.29
2013-9-5,79.9,63.2,56.7,64.9,57.8,53.4,98,84,45,29.87,29.72,4,0,4,0.42
2013-9-6,80.6,64.3,59.4,65.7,58.8,51.8,98,84,41,29.96,29.75,6,0,6,0.37
2013-9-7,82.0,69.6,57.2,64.0,58.1,51.3,97,82,40,29.93,29.81,0,0,0,0.00
2013-9-8,89.4,66.0,55.0,61.7,56.1,48.6,97,76,30,29.96,29.84,4,0,4,0.00
2013-9-9,88.2,65.5,56.3,63.0,56.4,52.2,97,77,33,29.90,29.78,5,0,5,0.00
2013-9-10,88.2,64.7,55.6,62.2,57.1,53.2,97,80,35,29.84,29.69,4,0,4,0.00
2013-9-11,99.3,70.2,55.9,64.9,57.7,51.6,97,72,22,29.75,29.66,4,0,4,0.00
2013-9-12,92.3,69.3,56.7,64.0,57.1,53.1,96,71,30,29.81,29.69,4,0,4,0.00
2013-9-13,66.6,61.6,55.6,61.5,57.9,53.2,95,88,76,29.81,29.66,2,0,2,0.00
2013-9-14,68.2,63.2,58.3,61.7,59.2,56.3,95,87,72,29.69,29.51,2,0,2,0.00
2013-9-15,66.6,62.2,58.6,63.9,60.0,56.8,97,93,77,29.63,29.48,3,0,3,0.17
2013-9-16,68.0,60.7,56.3,61.2,57.4,53.1,98,89,69,29.78,29.60,7,0,7,0.04
2013-9-17,61.5,56.3,52.7,57.7,54.0,51.1,98,92,79,29.78,29.66,2,0,2,0.04
2013-9-18,73.9,56.8,48.6,60.4,50.2,43.7,98,81,39,29.90,29.72,3,0,3,0.00
2013-9-19,91.8,58.3,41.5,56.7,45.5,37.2,98,71,19,29.87,29.57,7,0,7,0.00
2013-9-20,86.9,59.9,45.7,56.1,47.4,39.7,95,69,23,29.57,29.39,6,0,6,0.00
2013-9-21,81.0,62.2,54.7,58.3,50.2,39.4,95,70,28,29.54,29.45,6,0,6,0.00
2013-9-22,71.1,56.9,52.5,61.0,51.1,46.2,94,82,46,29.57,29.39,8,0,8,0.25
2013-9-23,62.6,55.6,48.7,53.1,49.2,45.9,93,80,60,29.81,29.54,6,0,6,0.25
2013-9-24,71.8,53.0,46.2,58.1,46.7,39.0,98,81,35,29.81,29.63,4,0,4,0.04
2013-9-25,66.0,51.5,43.3,51.4,46.2,39.9,96,83,47,29.87,29.66,4,0,4,0.04
2013-9-26,72.0,50.6,39.9,53.2,42.4,38.3,97,77,34,29.99,29.84,4,0,4,0.04
2013-9-27,55.4,51.0,45.5,52.7,49.0,42.1,96,93,87,29.96,29.66,4,0,4,0.05
2013-9-28,61.3,53.9,49.8,59.7,52.9,48.4,98,96,89,29.69,29.16,10,0,10,1.74
2013-9-29,54.5,51.5,49.5,51.8,48.3,44.8,97,89,71,29.39,29.01,8,1,9,1.74
2013-9-30,59.0,52.8,46.6,52.9,46.6,43.5,94,87,68,29.75,29.28,0,0,0,0.45
2013-10-1,66.7,50.0,44.6,49.6,44.4,37.4,96,83,39,29.96,29.72,7,0,7,0.04
2013-10-2,55.0,50.4,47.7,50.5,45.4,41.0,94,83,66,29.99,29.87,5,0,5,0.08
2013-10-3,57.6,49.8,43.2,53.2,46.4,41.4,98,89,62,30.28,29.99,3,0,3,0.05
2013-10-4,73.0,49.0,34.9,50.0,41.5,34.2,98,80,35,30.31,30.19,3,0,3,0.05
2013-10-5,79.0,59.1,39.2,53.4,42.9,37.6,98,76,29,30.19,29.96,0,0,0,0.00
2013-10-6,87.1,55.0,37.9,56.5,41.4,31.8,97,69,19,29.96,29.72,1,0,2,0.00
2013-10-7,68.2,54.2,50.4,51.1,45.2,35.4,95,74,36,29.84,29.72,9,0,9,0.04
2013-10-8,66.4,50.5,39.7,50.9,43.1,37.4,91,77,43,29.93,29.78,6,0,6,0.08
2013-10-9,66.7,45.5,34.5,48.0,38.9,32.9,97,80,38,29.99,29.78,4,0,4,0.08
2013-10-10,61.0,49.9,41.7,50.9,43.8,39.6,96,81,51,29.90,29.75,3,0,3,0.00
2013-10-11,56.5,50.1,44.6,53.4,47.6,42.8,98,91,76,29.99,29.90,3,0,3,0.04
2013-10-12,65.5,49.2,41.4,52.0,44.2,39.0,98,85,45,30.07,29.90,5,0,5,0.09
2013-10-13,60.6,45.2,38.5,48.4,41.5,36.1,97,88,52,30.22,30.04,2,0,3,0.09
2013-10-14,67.6,44.6,34.3,48.4,38.6,33.1,98,83,36,30.28,30.19,4,0,4,0.00
2013-10-15,66.7,46.9,36.5,48.7,40.8,34.7,98,82,43,30.22,30.01,4,0,4,0.00
2013-10-16,51.3,47.8,44.1,49.6,45.2,42.4,98,91,81,30.04,29.96,1,0,1,0.00
2013-10-17,62.6,47.7,39.9,48.0,43.0,37.8,93,85,51,30.13,30.01,3,0,3,0.00
2013-10-18,67.5,46.2,38.1,51.4,41.3,36.5,98,85,45,30.07,29.96,3,0,3,0.00
2013-10-19,49.1,44.8,40.5,47.3,43.5,39.4,97,95,90,30.04,29.96,2,0,2,0.00
2013-10-20,47.8,45.3,42.8,45.9,44.2,42.3,98,96,91,30.04,29.96,2,0,2,0.00
2013-10-21,49.6,46.4,43.2,47.5,44.9,42.6,98,96,88,30.01,29.93,0,0,0,0.00
2013-10-22,51.1,46.6,43.3,49.5,45.7,42.8,98,97,91,29.96,29.84,3,0,3,0.04
2013-10-23,68.0,47.4,40.1,51.4,43.7,39.6,98,89,48,29.90,29.78,3,0,3,0.04
2013-10-24,54.3,46.4,42.1,50.4,44.6,40.3,98,94,79,29.96,29.84,3,0,3,0.00
2013-10-25,50.9,47.7,44.1,48.9,46.4,43.2,98,96,88,30.16,29.96,2,0,2,0.00
2013-10-26,50.2,47.2,45.0,48.2,45.6,44.4,98,94,86,30.19,30.01,2,0,2,0.00
2013-10-27,52.2,46.4,41.0,51.3,45.5,40.5,98,97,94,30.04,29.72,2,0,2,0.04
2013-10-28,66.4,44.1,34.5,50.2,38.8,31.5,98,85,32,29.81,29.69,4,0,4,0.00
2013-10-29,65.7,40.4,28.6,43.9,32.4,27.1,97,77,31,29.90,29.78,4,0,4,0.00
2013-10-30,63.1,43.9,31.5,47.1,37.0,29.1,96,79,40,29.99,29.84,5,0,5,0.00
2013-10-31,53.6,48.7,46.2,51.8,47.1,43.2,98,94,88,30.10,29.93,2,0,2,0.04
2013-11-1,63.0,51.4,45.0,55.6,47.9,44.4,98,89,61,30.13,29.66,3,0,3,0.04
2013-11-2,52.3,48.6,41.2,50.5,42.0,32.9,98,79,55,29.72,29.31,26,2,26,0.33
2013-11-3,60.1,41.9,35.4,48.9,36.5,31.3,98,83,37,29.96,29.72,9,0,9,0.00
2013-11-4,51.6,39.6,30.4,41.9,34.3,28.6,97,83,47,30.04,29.90,3,0,3,0.05
2013-11-5,56.3,45.5,40.5,51.1,42.7,38.1,98,90,65,30.10,29.84,6,0,6,0.33
2013-11-6,51.6,45.2,41.7,49.1,43.8,41.2,98,95,81,30.16,29.87,8,0,8,0.08
2013-11-7,49.6,47.4,46.0,47.1,45.0,41.9,98,92,77,29.87,29.54,7,2,13,1.16
2013-11-8,57.9,49.7,41.5,46.0,42.1,37.9,96,84,52,29.99,29.81,0,0,0,1.16
2013-11-9,48.9,42.5,34.7,44.4,40.7,34.0,98,93,81,30.01,29.93,2,0,2,0.08
2013-11-10,48.9,45.4,43.0,47.3,44.2,42.4,98,96,86,30.01,29.90,3,0,3,0.08
2013-11-11,59.4,47.6,40.3,52.2,42.7,33.1,98,85,43,30.01,29.84,8,1,8,0.00
2013-11-12,57.7,51.8,46.4,54.9,46.5,32.9,98,84,42,30.19,29.84,11,0,11,0.12
2013-11-13,60.4,49.6,44.4,52.7,46.3,39.4,98,89,51,30.31,30.13,4,0,4,0.00
2013-11-14,50.4,45.1,41.7,49.6,44.2,41.2,98,97,90,30.16,29.90,4,0,4,0.13
2013-11-15,46.8,43.2,41.0,44.6,42.0,39.4,98,95,84,29.90,29.13,12,1,12,0.41
2013-11-16,46.8,42.0,37.9,44.2,37.7,33.6,98,85,69,29.60,29.16,6,0,6,0.41
2013-11-17,50.5,46.2,41.4,45.0,40.2,34.0,89,79,65,29.75,29.60,10,1,10,0.04
2013-11-18,52.3,48.2,45.5,50.4,47.2,42.4,98,96,87,29.75,29.36,9,0,9,0.54
2013-11-19,53.4,43.1,31.6,50.0,40.5,29.1,97,91,84,29.90,29.36,12,0,12,0.54
2013-11-20,46.9,31.5,25.0,34.3,26.4,22.3,97,83,42,30.34,29.90,4,0,4,0.16
2013-11-21,47.5,28.9,23.7,34.2,24.7,21.7,95,85,48,30.52,30.31,4,0,4,0.00
2013-11-22,46.4,29.3,21.2,34.3,24.3,18.7,94,83,44,30.49,30.31,3,0,3,0.00
2013-11-23,47.1,31.9,24.1,37.0,27.2,21.9,95,84,50,30.31,30.01,3,0,3,0.00
2013-11-24,55.4,34.2,26.8,39.0,29.6,25.3,96,85,46,30.10,29.99,3,0,3,0.00
2013-11-25,57.0,36.3,28.2,43.7,32.2,27.0,97,86,48,30.16,30.07,2,0,2,0.00
2013-11-26,54.9,41.0,27.1,45.0,33.3,25.9,97,89,52,30.10,29.93,2,0,3,0.00
2013-11-27,55.4,43.8,32.2,45.3,35.8,30.4,98,84,48,29.96,29.78,3,0,3,0.00
2013-11-28,58.5,36.7,29.1,45.9,32.5,28.0,98,87,39,30.01,29.84,3,0,3,0.00
2013-11-29,42.6,38.9,31.6,42.1,38.2,30.0,98,97,93,30.19,30.01,2,0,2,0.00
2013-11-30,48.9,45.5,41.9,48.4,45.0,41.4,98,98,98,30.19,29.93,3,0,3,0.25
2013-12-1,53.4,50.3,39.4,51.3,45.1,33.8,98,83,63,29.93,29.57,16,2,16,0.25
2013-12-2,45.5,35.8,32.2,42.3,32.8,28.0,98,89,58,29.87,29.63,6,0,6,0.08
2013-12-3,41.9,31.6,25.2,33.8,26.5,17.4,98,83,41,30.16,29.87,4,0,4,0.08
2013-12-4,41.0,25.8,19.4,31.3,21.1,16.5,91,83,50,30.19,30.10,3,0,3,0.08
2013-12-5,30.6,22.8,17.2,24.6,18.8,13.8,89,85,75,30.16,30.01,2,0,2,0.00
2013-12-6,37.2,21.9,13.5,21.6,9.8,1.4,87,63,32,30.07,29.96,6,0,6,0.00
2013-12-7,33.1,15.7,8.4,14.9,1.8,-2.4,79,55,31,30.28,30.07,4,0,4,0.00
2013-12-8,35.1,19.3,9.3,17.4,6.9,-3.1,77,59,34,30.43,30.25,4,0,4,0.00
2013-12-9,29.8,23.0,12.6,21.2,15.9,6.1,81,74,59,30.43,30.31,2,0,2,0.00
2013-12-10,37.9,31.2,27.5,29.1,25.0,21.2,86,78,63,30.34,30.25,4,0,4,0.05
2013-12-11,40.8,29.7,23.5,32.2,25.4,21.0,91,84,63,30.25,29.99,3,0,3,0.05
2013-12-12,36.9,32.0,25.9,35.8,30.6,24.1,98,94,90,30.01,29.90,4,0,4,0.08
2013-12-13,45.7,39.2,35.8,45.1,38.6,35.2,98,98,98,30.28,29.96,2,0,2,0.16
2013-12-14,43.5,40.5,36.9,43.0,40.0,36.3,98,98,98,30.31,30.16,3,0,3,0.00
2013-12-15,50.5,45.4,41.0,50.0,44.8,40.5,98,98,97,30.28,30.13,5,0,5,0.21
2013-12-16,44.8,41.5,37.2,44.2,41.0,36.7,98,98,98,30.34,30.10,3,0,3,0.00
2013-12-17,39.6,37.3,34.9,39.0,36.8,34.3,98,98,98,30.10,29.96,3,0,3,0.00
2013-12-18,43.0,38.1,29.5,42.4,37.5,28.9,98,98,98,30.01,29.87,4,0,4,0.13
2013-12-19,35.8,29.7,26.1,35.2,29.2,25.5,98,98,98,30.19,29.99,2,0,2,0.13
2013-12-20,32.7,31.1,27.5,32.2,30.6,27.0,98,98,98,30.04,29.54,1,0,1,0.04
2013-12-21,37.9,35.3,32.7,37.4,34.7,32.2,98,98,98,29.99,29.66,1,0,1,0.33
2013-12-22,47.8,42.1,37.6,47.3,41.6,37.0,98,98,98,30.13,29.99,4,0,4,0.46
2013-12-23,55.4,46.6,40.5,48.6,44.8,39.9,98,94,59,30.34,29.96,14,1,14,0.37
2013-12-24,49.1,38.7,34.5,46.9,37.1,32.2,98,94,69,30.46,30.31,4,0,4,0.00
2013-12-25,41.9,32.7,29.8,41.0,32.1,29.3,98,98,92,30.37,30.22,2,0,2,0.00
2013-12-26,50.7,34.7,29.3,44.8,32.9,28.8,98,94,69,30.22,30.01,2,0,2,0.00
2013-12-27,43.3,36.3,30.0,42.8,35.8,29.5,98,98,97,30.22,29.96,5,0,5,0.17
2013-12-28,48.9,40.8,37.6,48.2,40.2,37.0,98,98,89,30.34,30.22,2,0,2,0.03
2013-12-29,40.6,37.8,35.4,40.1,37.3,34.9,98,98,98,30.31,30.13,2,0,2,0.00
2013-12-30,41.9,38.2,34.0,41.4,37.7,33.4,98,98,98,30.16,29.96,122,0,3,0.05
2013-12-31,46.6,42.0,37.6,46.0,41.5,37.0,98,98,98,30.22,30.01,1,0,1,0.05
2014-1-1,45.5,36.8,30.6,45.0,36.2,29.8,98,97,86,30.25,30.07,2,0,2,0.04
2014-1-2,46.4,41.8,38.3,45.9,41.2,37.6,98,98,98,30.07,29.72,6,0,6,0.66